Overview Statistics Trail Chart Weather Telemetry Raw packets
 

This is the latest recevied weather packets stored in our database for station/object OM4MO-10. If no packets are shown the sender has not sent any weather packets the latest 10 day(s).

<< 5 6 7 8 9 10 11 >>
Time Temp. Humidity Pressure Rain* Wind** Luminosity Snow
1788511404 21.11° C 79% 1021.8 hPa - - - -
1788510504 20.56° C 79% 1021.8 hPa - - - -
1788509604 20.56° C 79% 1022 hPa - - - -
1788508704 20.56° C 79% 1021.7 hPa - - - -
1788507803 20.56° C 79% 1021.6 hPa - - - -
1788506903 19.44° C 79% 1021.6 hPa - - - -
1788506003 18.89° C 79% 1021.6 hPa - - - -
1788505103 19.44° C 79% 1021.4 hPa - - - -
1788504203 18.89° C 79% 1021.6 hPa - - - -
1788503303 17.78° C 79% 1021.6 hPa - - - -
1788502403 17.78° C 79% 1021.5 hPa - - - -
1788501502 16.11° C 79% 1021.6 hPa - - - -
1788500602 15° C 79% 1021.6 hPa - - - -
1788499702 14.44° C 79% 1021.5 hPa - - - -
1788498802 13.89° C 79% 1021.6 hPa - - - -
1788497902 13.89° C 79% 1021.6 hPa - - - -
1788497002 13.33° C 79% 1021.5 hPa - - - -
1788496102 12.78° C 79% 1021.4 hPa - - - -
1788495202 13.33° C 79% 1021.3 hPa - - - -
1788494301 13.33° C 79% 1021.3 hPa - - - -
1788493401 13.33° C 79% 1021.4 hPa - - - -
1788492501 13.33° C 79% 1021.4 hPa - - - -
1788491601 13.33° C 79% 1021.3 hPa - - - -
1788490701 13.33° C 79% 1021.3 hPa - - - -
1788489801 12.78° C 79% 1021.2 hPa - - - -

* Rain since midnight (hover to see other rain measurements)
** Current wind speed in m/s (hover to see current wind gust speed)